Weather History for Truckee-Tahoe, CA

Change the Weather History Date:

Sunday, February 17, 2013

  Actual Average Record
Temperature  
Mean Temperature 30 °F -  
Max Temperature 46 °F 42 °F 64 °F (1977)
Min Temperature 14 °F 17 °F -1 °F (1956)
Degree Days  
Heating Degree Days 35    
Moisture  
Dew Point 17 °F    
Average Humidity 71    
Maximum Humidity 93    
Minimum Humidity 20    
Precipitation  
Precipitation 0.00 in - - ()
Snow  
Snow 0.00 in - - ()
Snow Depth 4.00 in    
Sea Level Pressure  
Sea Level Pressure 30.05 in    
Wind  
Wind Speed 2 mph (East)    
Max Wind Speed 8 mph    
Max Gust Speed -    
Visibility 10 miles    
Events      
Averages and records for this station are not official NWS values.
T = Trace of Precipitation, MM = Missing Value Source: NWS Daily Summary

Daily Weather History Graph

Daily Weather History Graph

Search for Another Location

Airport:

Trip Planner

Search our weather history database for the weather conditions in past years. The results will help you decide how hot, cold, wet, or windy it might be!

Date:

Astronomy

Feb. 17, 2013 Rise Set
Actual Time 6:49 AM PST 5:40 PM PST
Civil Twilight 6:22 AM PST 6:07 PM PST
Nautical Twilight 5:50 AM PST 6:38 PM PST
Astronomical Twilight 5:19 AM PST 7:09 PM PST
Moon 10:48 AM PST (2/17) 12:37 AM PST (2/17)
Length of Visible Light 11h 45m
Length of Day
10h 50m
Waxing Crescent, 50% of the Moon is Illuminated
Feb 17
Waxing Crescent
Feb 17
First Quarter
Feb 25
Full
Mar 4
Last Quarter
Mar 11
New

Hourly Weather History & Observations

Time (PST) Temp. Windchill Dew Point Humidity Pressure Visibility Wind Dir Wind Speed Gust Speed Precip Events Conditions
12:15 AM 19.4 °F 14.3 °F 17.6 °F 93% 30.11 in 10.0 mi SW 3.5 mph - N/A   Clear
12:35 AM 23.0 °F - 19.4 °F 86% 30.11 in 10.0 mi Calm Calm - N/A   Clear
12:55 AM 23.0 °F - 17.6 °F 80% 30.10 in 10.0 mi Calm Calm - N/A   Clear
1:15 AM 21.2 °F - 15.8 °F 80% 30.10 in 10.0 mi Calm Calm - N/A   Clear
1:35 AM 19.4 °F 14.3 °F 17.6 °F 93% 30.09 in 10.0 mi ESE 3.5 mph - N/A   Clear
1:55 AM 21.2 °F - 17.6 °F 86% 30.09 in 10.0 mi Calm Calm - N/A   Clear
2:15 AM 19.4 °F 14.3 °F 17.6 °F 93% 30.08 in 10.0 mi SSW 3.5 mph - N/A   Clear
2:35 AM 19.4 °F - 17.6 °F 93% 30.06 in 10.0 mi Calm Calm - N/A   Clear
2:55 AM 19.4 °F 14.3 °F 15.8 °F 86% 30.06 in 10.0 mi North 3.5 mph - N/A   Clear
3:15 AM 19.4 °F 14.3 °F 15.8 °F 86% 30.06 in 10.0 mi NE 3.5 mph - N/A   Clear
3:35 AM 17.6 °F - 14.0 °F 86% 30.06 in 10.0 mi Calm Calm - N/A   Clear
3:55 AM 17.6 °F - 15.8 °F 93% 30.06 in 10.0 mi Calm Calm - N/A   Clear
4:15 AM 17.6 °F 12.3 °F 14.0 °F 86% 30.05 in 10.0 mi South 3.5 mph - N/A   Clear
4:35 AM 17.6 °F 12.3 °F 15.8 °F 93% 30.05 in 10.0 mi North 3.5 mph - N/A   Clear
4:55 AM 17.6 °F - 15.8 °F 93% 30.06 in 10.0 mi Calm Calm - N/A   Clear
5:15 AM 15.8 °F 10.2 °F 14.0 °F 93% 30.06 in 10.0 mi SSE 3.5 mph - N/A   Clear
5:35 AM 15.8 °F 10.2 °F 14.0 °F 93% 30.06 in 10.0 mi South 3.5 mph - N/A   Clear
6:55 AM 14.0 °F - 12.2 °F 93% 30.06 in 10.0 mi Calm Calm - N/A   Clear
7:50 AM 17.6 °F 12.3 °F 15.8 °F 93% 30.07 in 10.0 mi SSE 3.5 mph - N/A   Clear
8:55 AM 24.8 °F - 19.4 °F 80% 30.07 in 10.0 mi Calm Calm - N/A   Clear
9:45 AM 28.4 °F - 19.4 °F 69% 30.07 in 10.0 mi Calm Calm - N/A   Clear
10:45 AM 35.6 °F - 19.4 °F 52% 30.06 in 10.0 mi Calm Calm - N/A   Clear
12:50 PM 44.6 °F 43.1 °F 15.8 °F 31% 30.02 in 10.0 mi NNE 3.5 mph - N/A   Clear
1:50 PM 46.4 °F 43.5 °F 15.8 °F 29% 30.01 in 10.0 mi NNE 5.8 mph - N/A   Clear
2:45 PM 46.4 °F 43.5 °F 12.2 °F 25% 29.99 in 10.0 mi NNE 5.8 mph - N/A   Clear
3:45 PM 46.4 °F 42.9 °F 6.8 °F 20% 30.00 in 10.0 mi NNE 6.9 mph - N/A   Clear
4:50 PM 46.4 °F 44.3 °F 8.6 °F 22% 30.00 in 10.0 mi NNE 4.6 mph - N/A   Clear
4:55 PM 46.4 °F 43.5 °F 8.6 °F 22% 30.00 in 10.0 mi North 5.8 mph - N/A   Clear
5:15 PM 44.6 °F 40.2 °F 15.8 °F 31% 29.99 in 10.0 mi NW 8.1 mph - N/A   Clear
5:35 PM 44.6 °F 41.4 °F 21.2 °F 39% 30.00 in 10.0 mi WNW 5.8 mph - N/A   Clear
5:55 PM 41.0 °F 35.8 °F 23.0 °F 49% 30.00 in 10.0 mi West 8.1 mph - N/A   Clear
6:15 PM 37.4 °F 32.8 °F 17.6 °F 45% 30.01 in 10.0 mi SSE 5.8 mph - N/A   Clear
6:35 PM 35.6 °F - 19.4 °F 52% 30.02 in 10.0 mi Calm Calm - N/A   Clear
6:55 PM 32.0 °F 28.7 °F 19.4 °F 60% 30.02 in 10.0 mi South 3.5 mph - N/A   Clear
7:15 PM 32.0 °F - 19.4 °F 60% 30.02 in 10.0 mi Calm Calm - N/A   Clear
7:35 PM 32.0 °F 28.7 °F 19.4 °F 60% 30.03 in 10.0 mi SSE 3.5 mph - N/A   Clear
7:55 PM 30.2 °F - 21.2 °F 69% 30.03 in 10.0 mi Calm Calm - N/A   Clear
8:15 PM 28.4 °F - 19.4 °F 69% 30.03 in 10.0 mi Calm Calm - N/A   Clear
8:35 PM 28.4 °F - 21.2 °F 74% 30.04 in 10.0 mi Calm Calm - N/A   Clear
8:55 PM 26.6 °F - 21.2 °F 80% 30.04 in 10.0 mi Calm Calm - N/A   Clear
9:15 PM 26.6 °F - 21.2 °F 80% 30.04 in 10.0 mi Calm Calm - N/A   Clear
9:35 PM 26.6 °F 22.6 °F 21.2 °F 80% 30.05 in 10.0 mi ESE 3.5 mph - N/A   Clear
9:55 PM 23.0 °F 17.0 °F 19.4 °F 86% 30.05 in 10.0 mi ESE 4.6 mph - N/A   Clear
10:15 PM 23.0 °F - 19.4 °F 86% 30.05 in 10.0 mi Calm Calm - N/A   Clear
10:35 PM 24.8 °F - 21.2 °F 86% 30.05 in 10.0 mi Calm Calm - N/A   Clear
10:55 PM 24.8 °F - 21.2 °F 86% 30.06 in 10.0 mi Calm Calm - N/A   Clear
11:15 PM 24.8 °F 20.5 °F 19.4 °F 80% 30.05 in 10.0 mi East 3.5 mph - N/A   Clear
11:35 PM 23.0 °F - 19.4 °F 86% 30.05 in 10.0 mi Calm Calm - N/A   Clear
11:55 PM 23.0 °F - 19.4 °F 86% 30.05 in 10.0 mi Calm Calm - N/A   Clear